EHI
0 1 2 4 4 5 5 6 6 6 5 3 1 0 0 0 0 0 0 0 1 2 3 2 2 2 2 1 0 0 0 0 0 0 0 0 0 0 0 0 0 0 0
0 1 3 4 4 5 5 5 6 6 5 3 2 0 0 0 0 0 0 0 1 2 2 1 1 1 1 1 1 1 1 1 1 0 0 0 0 0 0 0 0 0 0
0 1 3 5 5 6 5 5 5 6 5 3 1 1 0 0 0 0 0 0 0 1 1 0 0 0 1 2 2 2 2 2 1 0 0 0 0 0 0 0 0 0 0
0 0 3 6 7 7 6 5 5 4 4 3 2 1 1 0 0 0 0 0 0 0 0 0 0 0 1 2 2 2 3 2 1 0 0 0 0 0 0 0 0 0 0
0 0 2 4 5 6 5 4 4 4 4 4 3 2 1 0 0 0 0 0 0 0 0 0 0 0 1 1 1 1 2 1 0 0 0 0 0 0 0 0 0 0 0
0 0 1 1 2 3 3 3 5 5 5 4 4 3 2 1 0 0 0 0 0 0 0 0 0 0 0 0 0 0 0 0 0 0 0 0 0 0 0 0 0 0 0
0 0 0 0 1 2 2 4 6 6 5 4 3 3 1 1 1 1 0 0 0 0 0 0 0 0 0 0 0 0 0 0 0 0 0 0 0 1 1 1 1 1 0
0 0 0 0 1 2 3 4 6 6 4 3 3 2 1 0 0 1 1 1 0 0 0 0 0 0 0 0 0 0 0 0 0 0 0 0 0 1 2 3 3 2 1
0 0 0 0 1 2 2 3 5 6 4 3 2 1 1 1 0 1 2 2 1 1 1 1 1 0 0 0 0 0 0 0 0 0 0 0 0 1 3 5 4 3 3
0 0 0 0 0 1 1 1 4 5 3 1 1 1 1 1 0 0 1 2 2 2 2 2 2 1 1 1 0 0 0 0 0 0 0 0 0 1 3 5 5 4 3
0 0 0 0 0 0 0 0 2 3 1 0 0 0 1 1 0 0 0 1 1 2 3 3 3 2 2 1 1 0 0 0 0 0 0 0 0 1 3 4 4 3 2
0 0 0 1 0 0 0 0 1 1 1 0 0 0 0 0 0 0 0 0 1 1 2 3 3 3 2 1 1 1 0 0 0 0 0 1 0 0 2 4 4 3 3
1 0 0 0 0 0 0 0 0 0 0 0 0 0 0 0 0 0 0 0 0 0 1 1 1 1 1 0 0 0 0 0 0 0 1 3 2 2 3 4 5 4 4
1 0 0 0 0 0 0 0 0 0 0 0 0 0 0 0 0 0 0 0 0 0 0 0 0 0 0 0 0 0 0 0 0 0 1 3 4 4 5 5 5 4 4
1 0 0 0 0 0 0 0 0 0 0 0 0 0 0 0 0 0 0 0 0 0 0 0 0 0 0 0 0 0 0 0 0 0 1 2 3 4 5 6 6 5 4
0 0 0 0 0 0 0 0 0 0 0 0 0 0 0 0 0 0 0 0 0 0 0 0 0 0 0 0 0 0 0 0 1 1 1 1 3 3 4 6 8 8 7
0 0 0 0 0 0 0 0 0 0 0 0 0 0 0 0 0 0 0 0 0 0 0 0 0 0 0 0 0 0 0 0 1 2 2 2 2 3 4 7 9 9 9
0 0 0 0 0 0 0 0 0 0 0 0 0 0 0 0 0 0 0 0 0 0 0 0 0 0 0 0 0 0 0 0 0 1 1 1 2 2 4 6 7 8 10
0 0 0 0 1 0 0 0 0 0 0 0 0 0 0 0 0 0 0 0 0 0 0 0 0 0 0 0 0 0 0 0 0 0 0 1 2 3 4 4 5 6 7
0 0 0 0 1 1 1 1 1 0 0 0 0 0 0 0 0 1 1 0 0 0 0 0 0 0 0 0 0 0 0 0 0 0 0 1 2 3 3 3 3 3 2
0 0 0 1 1 2 2 2 1 0 0 1 1 1 1 0 0 1 1 1 0 0 0 0 0 0 1 1 1 0 0 0 0 0 0 0 1 2 2 2 1 1 0
1 1 2 3 3 3 2 1 1 0 0 1 2 2 2 1 1 1 2 2 1 0 0 0 1 1 1 2 1 0 0 0 0 0 0 0 0 1 1 1 0 0 0
3 4 6 5 4 3 2 1 1 1 1 2 3 3 3 3 2 2 3 3 2 1 0 0 0 0 1 1 1 0 0 0 0 0 0 0 0 0 0 0 0 0 0
8 8 8 7 4 2 2 2 3 4 4 3 3 3 3 3 3 3 4 4 3 1 0 0 0 0 0 0 0 0 0 0 0 0 0 0 0 0 0 0 0 0 0
11 10 10 8 4 2 1 2 4 5 4 3 3 3 2 3 3 4 4 5 4 3 1 0 0 0 0 0 1 1 0 0 0 0 1 1 0 0 0 0 0 0 0
11 12 11 7 5 3 2 2 4 5 3 2 2 2 3 3 3 4 4 4 5 4 2 1 0 0 0 1 2 2 1 0 0 1 2 2 1 0 0 0 0 0 0
Wind_Speed
2 3 11 13 15 15 16 16 17 18 19 19 18 18 18 17 16 15 14 14 14 13 13 12 12 12 12 12 12 12 12 11 11 12 12 12 12 12 12 13 12 9 13
4 5 12 13 14 15 15 16 17 18 18 18 18 17 17 16 15 15 14 13 13 13 12 12 12 12 12 12 12 11 11 11 11 11 11 11 11 11 11 12 11 8 12
6 6 10 13 14 14 15 16 17 17 17 17 17 17 16 15 14 14 13 12 12 12 12 12 12 12 12 11 11 11 10 10 10 10 10 6 7 10 10 11 11 11 11
7 6 9 14 14 14 15 15 17 17 16 16 16 16 15 14 13 13 12 11 11 11 11 11 11 11 11 11 10 10 10 9 10 10 5 4 4 8 9 10 10 11 11
6 6 9 15 14 14 14 15 16 16 16 16 15 14 13 13 12 12 11 10 10 10 10 10 10 10 9 9 9 9 9 9 9 7 4 3 3 7 8 9 10 10 10
6 6 9 14 14 14 15 15 15 15 15 14 14 13 12 12 11 11 10 9 9 9 9 9 9 8 8 8 8 8 8 7 6 4 3 3 3 6 8 9 9 9 10
6 5 7 13 13 14 14 15 14 14 14 13 13 12 11 11 10 10 9 9 8 8 7 7 7 7 7 6 6 6 6 6 4 3 3 2 3 6 7 8 9 9 9
6 5 6 12 13 12 13 14 14 14 13 13 12 11 10 9 9 8 8 8 7 6 5 5 6 6 5 5 5 5 5 5 4 3 2 2 4 5 6 7 8 8 8
5 5 4 5 7 11 12 12 13 13 12 11 11 10 9 9 8 7 7 6 6 5 4 4 4 5 4 4 3 3 4 4 3 2 2 2 4 5 6 7 7 8 8
5 4 4 4 4 4 6 11 12 12 11 10 10 9 8 7 6 5 5 4 4 4 3 3 3 3 2 2 2 2 3 4 3 2 1 2 5 6 6 7 7 7 8
4 3 3 4 4 3 3 7 8 10 9 8 6 7 6 3 2 2 3 3 3 2 2 2 1 2 2 2 2 2 2 1 2 1 1 4 6 6 6 7 7 7 7
5 3 3 3 3 3 3 3 2 3 3 2 2 3 2 2 1 1 1 1 2 1 1 1 1 2 2 2 2 2 1 1 1 1 2 5 6 7 7 7 7 7 8
6 4 3 3 3 3 2 3 2 2 2 2 2 2 2 1 1 1 1 1 1 1 2 2 2 1 1 1 1 0 0 0 1 1 2 6 6 7 8 8 8 8 8
5 5 4 4 3 3 3 3 2 2 1 1 1 2 2 1 1 0 0 0 1 1 1 1 1 1 1 1 1 1 1 1 1 1 2 6 7 8 8 8 8 9 9
6 5 5 4 4 3 3 2 3 2 2 2 1 1 2 1 1 1 0 0 0 0 0 0 1 1 1 2 1 1 2 2 2 3 2 6 7 7 8 9 9 9 9
7 6 5 5 4 4 3 2 2 2 2 1 1 2 2 2 2 1 1 0 0 1 1 1 1 1 1 1 2 2 2 2 3 3 3 4 7 7 8 9 9 10 10
7 6 6 6 5 5 4 3 2 2 2 2 1 2 2 2 2 2 1 1 1 1 1 0 1 0 1 1 2 2 2 2 3 4 4 3 3 6 8 8 9 9 10
7 7 7 7 6 5 4 3 2 2 2 2 2 2 2 3 3 2 2 2 2 1 1 1 0 0 1 1 1 2 2 2 3 3 3 3 3 3 5 8 8 9 10
8 7 7 6 6 6 5 3 2 2 2 2 2 2 2 3 3 3 2 2 2 1 1 1 1 1 1 1 2 2 2 2 2 3 3 4 4 4 3 5 8 8 10
7 7 7 6 5 5 4 2 1 1 1 2 2 2 3 3 3 3 2 2 2 1 1 1 1 1 1 1 1 1 2 2 1 2 3 3 3 4 4 4 4 4 8
7 7 7 7 5 5 3 3 2 2 2 2 2 3 3 3 3 3 2 2 2 2 2 2 1 1 1 0 1 2 2 1 1 1 2 2 2 3 3 3 3 3 3
9 8 8 7 6 6 4 3 2 2 2 2 1 2 3 3 4 4 4 3 3 2 2 2 2 1 0 1 1 1 2 3 2 1 1 2 2 2 2 3 3 4 4
10 10 9 8 7 6 5 3 2 1 1 0 1 1 2 3 3 3 4 3 3 3 3 3 3 3 1 1 1 2 1 2 2 2 2 1 1 1 2 2 3 4 4
10 9 8 8 7 6 6 5 6 4 4 4 2 2 2 3 3 4 4 4 3 3 3 3 3 2 2 1 1 1 2 2 1 2 2 2 2 2 2 2 2 3 3
9 9 8 7 7 7 7 7 6 5 4 2 2 2 2 2 3 4 4 4 4 3 3 3 3 3 2 2 2 1 1 1 1 2 3 3 2 2 2 2 2 2 2
9 8 8 8 8 7 7 7 7 7 5 4 3 3 3 2 2 3 4 4 4 4 4 4 3 4 3 3 2 2 2 2 2 2 3 3 3 3 2 2 2 3 3
Wind_Direction
144 138 126 121 117 118 118 119 121 121 121 121 120 119 118 117 115 112 109 106 102 101 99 98 98 99 101 102 104 105 106 107 109 110 111 112 112 112 113 114 111 110 115
147 140 132 128 123 122 121 121 122 122 121 121 120 120 118 117 116 113 111 108 105 102 101 99 99 99 99 101 103 105 108 110 111 112 112 113 114 114 115 116 117 119 119
135 135 134 132 128 124 122 122 123 123 122 121 121 120 120 118 117 114 112 110 108 104 102 102 101 101 100 100 103 106 107 108 110 109 102 94 113 119 121 122 121 122 122
132 129 136 136 131 127 125 124 125 125 124 123 122 121 121 121 120 117 115 114 110 107 104 103 101 101 101 100 102 105 107 108 106 104 93 93 105 122 124 126 125 124 124
124 125 140 136 133 130 129 127 127 126 126 125 125 124 123 123 123 121 118 115 112 108 105 103 101 102 102 102 104 104 103 103 102 98 92 90 95 129 131 132 130 128 127
121 126 135 134 132 131 131 130 129 128 126 125 125 125 126 127 126 124 121 118 114 110 107 105 102 101 101 102 105 104 101 99 97 95 95 108 117 138 140 137 135 134 134
120 120 133 135 133 133 133 134 132 131 129 128 128 128 129 129 127 126 123 120 116 112 109 108 104 104 105 104 102 104 107 109 106 107 106 117 138 147 146 145 144 142 139
121 119 128 138 137 137 138 138 136 134 132 132 132 130 129 128 128 127 124 122 120 116 113 110 109 105 103 101 99 107 122 122 117 117 115 135 156 157 155 154 153 152 150
110 113 114 124 134 139 141 141 140 139 136 135 136 135 134 134 134 133 130 128 127 125 123 117 111 105 101 96 93 104 134 133 122 128 137 147 170 170 170 168 163 160 158
103 106 109 107 109 118 135 146 147 145 143 142 142 141 140 137 136 135 130 136 137 137 136 125 116 102 93 84 77 88 128 123 131 140 142 173 181 182 179 177 173 169 170
122 105 109 114 117 120 127 153 150 149 149 146 144 142 132 101 93 112 139 152 153 156 151 146 122 90 68 49 40 72 87 118 138 149 169 192 191 192 190 185 182 182 182
154 147 126 126 126 127 137 113 104 114 115 113 107 108 94 93 94 112 172 188 173 167 128 137 77 51 47 37 22 42 66 140 167 184 200 202 200 200 199 196 193 194 194
166 163 151 142 135 132 118 109 104 99 97 100 114 117 105 87 73 48 32 9 17 38 38 35 36 42 39 34 23 31 111 176 216 223 218 212 208 208 207 203 200 204 205
163 171 160 151 142 142 131 123 130 130 128 134 146 149 136 130 110 103 63 27 31 39 42 25 15 1 349 323 290 255 234 218 217 221 229 223 219 216 213 211 210 210 212
172 180 171 159 157 152 142 147 148 159 166 166 160 164 163 167 176 162 186 111 69 78 142 313 318 325 324 320 297 256 241 230 224 225 235 230 227 225 222 219 218 219 220
181 183 174 169 167 160 163 167 166 166 169 160 166 184 180 178 180 180 191 199 221 213 219 227 259 285 294 298 298 286 261 240 227 226 232 240 241 238 231 226 223 226 228
184 180 180 180 171 170 179 186 186 176 162 166 187 190 187 185 187 181 187 211 227 206 201 221 273 275 276 286 289 282 267 248 235 232 232 235 245 247 240 234 229 228 228
180 180 188 187 176 177 183 189 189 179 169 188 192 188 192 192 187 180 193 219 216 199 195 198 216 312 293 290 291 287 272 256 244 235 232 233 235 247 248 243 238 234 233
183 182 183 186 180 181 181 183 186 178 186 199 195 194 199 199 192 186 201 216 194 189 200 228 187 193 252 284 283 285 283 259 249 242 233 231 230 235 240 252 248 240 238
181 180 183 184 181 172 164 159 158 174 213 209 207 206 201 201 195 188 201 211 190 187 207 207 210 213 225 245 283 314 304 285 264 250 248 243 236 236 237 243 247 248 242
180 180 184 182 181 166 161 168 174 200 212 218 220 217 210 204 199 192 203 199 194 201 215 208 192 208 236 178 46 351 333 306 284 268 258 256 256 249 243 240 239 241 247
189 190 189 189 182 181 182 171 171 172 196 207 222 219 213 209 206 204 199 203 199 200 207 201 182 178 242 137 124 54 345 338 334 317 278 248 258 248 250 251 244 240 243
193 195 196 192 188 188 179 149 133 98 56 145 223 228 225 212 209 207 202 201 200 194 206 210 189 186 207 216 166 151 157 269 309 319 320 311 296 264 259 255 249 247 238
200 195 192 190 190 188 176 173 177 186 202 212 209 216 229 217 214 208 203 200 201 197 207 216 192 187 179 212 215 194 194 188 215 312 320 319 311 289 282 276 271 261 245
195 192 192 187 191 188 184 186 187 200 208 202 193 211 229 230 223 215 206 199 203 204 210 213 200 195 190 196 199 189 186 191 198 218 287 311 320 298 284 277 274 270 256
190 189 187 187 195 190 189 191 194 197 198 198 208 215 229 231 232 225 212 207 207 205 210 211 207 206 207 205 204 195 186 189 199 200 240 277 295 298 295 283 272 270 262